Regional Weather Roundup
Issued by NWS Sterling, VA

Home | Current Version | Previous Version | Text Only | Print | Product List | Glossary On
Versions: 1 2 3 4 5 6 7 8 9 10 11 12 13 14 15 16 17 18 19 20 21 22 23 24 25 26 27 28 29 30 31 32 33 34 35 36 37 38 39 40 41 42 43 44 45 46 47 48 49 50
000
ASUS41 KLWX 220610
RWRLWX

REGIONAL WEATHER ROUNDUP
NATIONAL WEATHER SERVICE BALTIMORE MD/WASHINGTON DC
200 AM EDT WED OCT 22 2014

Note: "FAIR" indicates few or no clouds below 12,000 feet
with no significant weather and/or obstructions to visibility.
 TC=TEMPERATURE CELSIUS

 * =Non NWS site. Station does not report precipitation (e.g. rain,
    snow, etc.), thunder, or fog.

DCZ001-MDZ009-015-VAZ040>042-051-053>054-220700-
WASHINGTON METRO

CITY           SKY/WX    TMP DP  RH WIND       PRES   REMARKS
WASHINGTON NAT LGT RAIN  55  50  83 NW9       29.88F
DULLES         MOCLDY    51  49  92 NW8       29.90S
ANDREWS AFB    CLOUDY    53  51  95 NW8       29.86F
QUANTICO       CLOUDY    53  49  86 N14G23    29.89F
COLLEGE PARK*  CLOUDY    54  52  94 CALM      29.87S
LEESBURG*      CLOUDY    52  52 100 N7        29.91S
MANASSAS*      CLOUDY    52  50  93 N6        29.89F
GAITHERSBURG*  CLOUDY    52  48  87 N3        29.92S

$$

MDZ006>007-011-014-220700-
BALTIMORE METRO

CITY           SKY/WX    TMP DP  RH WIND       PRES   REMARKS
BWI AIRPORT    CLOUDY    53  51  93 NW5       29.86F
MD SCIENCE CTR   N/A     55  51  86 MISG      29.87F
MARTIN STATE   RAIN      54  54 100 CALM      29.89S
ANNAPOLIS      LGT RAIN  55  52  89 N6        29.86F
FORT MEADE*    CLOUDY    52  50  93 NW5       29.89F

$$

MDZ012-015-019>023-220700-
MARYLAND EASTERN SHORE

CITY           SKY/WX    TMP DP  RH WIND       PRES   REMARKS
OCEAN CITY     CLOUDY    56  54  93 N7        29.80F
SALISBURY      CLOUDY    57  54  89 N3        29.82F
BAY BRIDGE AP* LGT RAIN  54  54 100 N8        29.85F
CAMBRIDGE*     CLOUDY    55  52  88 N9        29.83F
EASTON*        LGT RAIN  56  56 100 NW7       29.88S

$$

MDZ017>025-220700-
SOUTHERN MARYLAND

CITY           SKY/WX    TMP DP  RH WIND       PRES   REMARKS
PATUXENT RIVER CLOUDY    56  52  86 N13       29.84S
ST INIGOES     MOCLDY    56  50  80 VRB6      29.83F
LEONARDTOWN*   CLOUDY    54  50  87 N5        29.86F

$$

MDZ003>005-220700-
NORTH CENTRAL MARYLAND

CITY           SKY/WX    TMP DP  RH WIND       PRES   REMARKS
FREDERICK*     CLOUDY    55  52  88 CALM      29.92F
HAGERSTOWN APT CLOUDY    51  48  89 CALM      29.91F
WESTMINSTER*   RAIN      52  48  87 CALM      29.89F

$$

MDZ501>502-220700-
WESTERN MARYLAND

CITY           SKY/WX    TMP DP  RH WIND       PRES   REMARKS
OAKLAND*       FOG       41 N/A N/A NW6       29.97S VSB<1/4
CUMBERLAND*    CLOUDY    52  46  82 N6        30.00S

$$

VAZ025>031-220700-
SHENANDOAH VALLEY

CITY           SKY/WX    TMP DP  RH WIND       PRES   REMARKS
WINCHESTER*    LGT RAIN  52  45  76 NW9       29.92F
FRONT ROYAL*   CLOUDY    52  45  76 NW7       29.91F
LURAY*         CLOUDY    54  46  76 NW5       29.93S
NEW MARKET*    CLOUDY    51  44  78 CALM      29.94S
STAUNTON*      CLOUDY    52  42  70 NW6       29.95F
WAYNESBORO*    CLOUDY    50  41  71 NW10G17   29.93F

$$

WVZ021-048>050-054>055-220700-
EASTERN WEST VIRGINIA PANHANDLE

CITY           SKY/WX    TMP DP  RH WIND       PRES   REMARKS
MARTINSBURG    LGT RAIN  52  46  80 N6        29.92F
PETERSBURG*    CLOUDY   N/A N/A N/A N3        29.97S

$$

VAZ036>039-050-220700-
CENTRAL FOOTHILLS

CITY           SKY/WX    TMP DP  RH WIND       PRES   REMARKS
CHARLOTTESVILL CLOUDY    53  44  71 N8        29.91S
CULPEPER*      CLOUDY    54  48  82 NW6       29.90F
ORANGE*        CLOUDY    54  46  76 W6        29.91S
GORDONSVILLE*  CLOUDY    53  45  73 N7        29.90S
WARRENTON*     MOCLDY    53  52  99 NW8       29.88F

$$

VAZ055>057-220700-
NORTH AND CENTRAL PIEDMONT

CITY           SKY/WX    TMP DP  RH WIND       PRES   REMARKS
FREDERICKSBRG* MOCLDY    53  53 100 NW5       29.88S
STAFFORD*      CLOUDY    51  51 100 NW7       29.92F

$$

NCZ024-NYZ072-PAZ021-071-VAZ022-071-220700-
OTHER REGIONAL OBSERVATIONS

CITY           SKY/WX    TMP DP  RH WIND       PRES   REMARKS
NEW YORK CITY  CLOUDY    57  52  83 E6        29.92F
PHILADELPHIA   CLOUDY    58  51  78 NE15      29.86F
PITTSBURGH     LGT RAIN  48  46  93 NW13      30.02F
ROANOKE        CLOUDY    50  38  63 NW10      30.00S
RICHMOND       MOCLDY    55  49  80 N12       29.86F
RALEIGH        PTCLDY    52  39  61 NW5       29.93F

$$

ANZ530>537-220700-
MARINE OBSERVATIONS

STATION/POSITION TIME  TEMP    WIND        PRES
                       AIR SEA DIR/SP/G
                 (UTC) (F)     (DEG/KT/KT) (MB)
THOMAS PT LIGHT  0600   55 64  350/ 15/ 16 1011.7F
BALT KEY BRIDGE  0600   55     340/  9/ 11 1011.0F
COVE POINT       0600   58      10/ 14/ 19 1010.4F
LEWISETTA        0600   57 65  350/ 11/ 15 1010.0F
SOLOMONS ISLAND  0600      66                N/A
PINEY POINT      0600          360/  9/ 12   N/A

$$




USA.gov is the U.S. government's official web portal to all federal, state and local government web resources and services.